Flag for Spain Weather past 2 weeks in Alicante, Spain

Now
84 °F

Partly sunny.


Feels Like: 91 °F
Forecast: 73 / 90 °F
Wind: 15 mph from East

Location: Alicante / El Altet

Current Time: Jul 31, 2015 at 4:05:26 PM

Latest Report: Jul 31, 2015 at 3:30 PM


Visibility: N/A

Pressure: 29.80 "Hg

Humidity: 70%

Dew point: 73 °F

Location of AlicanteLocation

Historic Weather in Alicante — Graph

°F

Alicante temperature yesterday

Maximum temperature yesterday: 88 °F (at 1:30 PM)
Minimum temperature yesterday: 81 °F (at 2:30 AM)
Average temperature yesterday: 84 °F

Past Weeks' High & Low Weather Summary

 TemperatureHumidityPressure
High100 °F (Jul 27, 1:00 PM)94% (Jul 20, 5:00 AM)30.07 "Hg (Jul 20, 5:00 AM)
Low73 °F (Jul 19, 6:00 AM)24% (Jul 25, 4:30 AM)29.74 "Hg (Jul 24, 6:30 PM)
Average84 °F70%29.92 "Hg
* Reported Jul 16 3:00 PM — Jul 31 3:00 PM, Alicante, Weather by CustomWeather, © 2015

Note: Actual official high and low records may vary slightly from our data, if they occured in-between our weather recording intervals... More about our weather records

Advertising

Alicante weather history for previous 24 hours

 ConditionsComfort  
Time TempWeatherWind HumidityBarometerVisibility
3:00 PM
Fri, Jul 31
84 °FPartly sunny.14 mph70%29.80 "HgN/A
2:30 PM86 °FPartly sunny.15 mph70%29.80 "HgN/A
2:00 PM86 °FPartly sunny.12 mph70%29.83 "HgN/A
1:30 PM86 °FPartly sunny.13 mph62%29.80 "HgN/A
1:00 PM86 °FPartly sunny.14 mph66%29.83 "HgN/A
12:30 PM86 °FPartly sunny.12 mph66%29.83 "HgN/A
12:00 PM86 °FPartly sunny.14 mph66%29.80 "HgN/A
11:30 AM84 °FPartly sunny.12 mph70%29.83 "HgN/A
11:00 AM86 °FPartly sunny.12 mph66%29.83 "HgN/A
10:30 AM84 °FPartly sunny.10 mph74%29.83 "HgN/A
10:00 AM82 °FBroken clouds.9 mph74%29.83 "HgN/A
9:30 AM82 °FBroken clouds.10 mph79%29.83 "HgN/A
9:00 AM82 °FBroken clouds.12 mph79%29.83 "HgN/A
8:30 AM82 °FBroken clouds.13 mph74%29.83 "HgN/A
8:00 AM82 °FScattered clouds.14 mph74%29.80 "HgN/A
7:30 AM82 °FPassing clouds.14 mph74%29.80 "HgN/A
7:00 AM81 °FPassing clouds.10 mph79%29.80 "HgN/A
6:30 AM82 °FPassing clouds.12 mph74%29.80 "HgN/A
6:00 AM82 °FPassing clouds.12 mph79%29.83 "HgN/A
5:30 AM81 °FPassing clouds.12 mph79%29.83 "HgN/A
5:00 AM82 °FPassing clouds.13 mph79%29.83 "HgN/A
4:30 AM82 °FPassing clouds.12 mph79%29.83 "HgN/A
4:00 AM81 °FPassing clouds.10 mph84%29.83 "HgN/A
3:30 AM82 °FPassing clouds.8 mph79%29.83 "HgN/A
3:00 AM82 °FPassing clouds.6 mph79%29.83 "HgN/A
2:30 AM82 °FPassing clouds.7 mph79%29.83 "HgN/A
2:00 AM82 °FPassing clouds.7 mph79%29.86 "HgN/A
1:30 AM82 °FPassing clouds.8 mph79%29.86 "HgN/A
1:00 AM82 °FPassing clouds.8 mph79%29.86 "HgN/A
12:30 AM82 °FPassing clouds.7 mph84%29.86 "HgN/A
12:00 AM82 °FPassing clouds.9 mph79%29.86 "HgN/A
11:30 PM
Thu, Jul 30
82 °FPassing clouds.12 mph79%29.86 "HgN/A
11:00 PM82 °FPassing clouds.10 mph84%29.86 "HgN/A
10:30 PM82 °FPassing clouds.12 mph79%29.86 "HgN/A
10:00 PM84 °FScattered clouds.14 mph74%29.86 "HgN/A
9:30 PM84 °FScattered clouds.13 mph74%29.83 "HgN/A
9:00 PM84 °FScattered clouds.14 mph74%29.83 "HgN/A
8:30 PM84 °FScattered clouds.13 mph74%29.80 "HgN/A
8:00 PM84 °FScattered clouds.14 mph74%29.80 "HgN/A
7:30 PM84 °FScattered clouds.12 mph74%29.80 "HgN/A
7:00 PM86 °FPassing clouds.12 mph70%29.80 "HgN/A
6:30 PM86 °FPassing clouds.13 mph70%29.80 "HgN/A
6:00 PM86 °FScattered clouds.14 mph75%29.80 "HgN/A
5:30 PM88 °FPassing clouds.12 mph62%29.80 "HgN/A
5:00 PM88 °FPassing clouds.12 mph66%29.83 "HgN/A
4:30 PM88 °FPassing clouds.12 mph62%29.83 "HgN/A
4:00 PM88 °FPassing clouds.12 mph62%29.83 "HgN/A
Weather by CustomWeather, © 2015

See weather overviewHow to use our weather pages